Simultaneous Nadir Overpasses (SNOs) Predictions

Prediction of SNOs between NOAA-20 and LANDSAT-8 Satellite Orbit:

Table of predicted SNOs for the next 14.0 days since TLE Epoch: 3/26/2022
Index Date (NOAA-20) Time (NOAA-20) Lat,Lon (NOAA-20) SZA (NOAA-20 ) Date (LANDSAT-8) Time (LANDSAT-8) Lat,Lon (LANDSAT-8) SZA (LANDSAT-8 ) Distance(km) Time Diff (sec)
1 03/26/2022 14:15:48 -70.22, 142.18 112.15 03/26/2022 14:16:58 -70.22, 142.26 112.16 3.07 70
2 03/26/2022 15:06:31 70.05, -50.26 67.67 03/26/2022 15:06:26 70.07, -50.32 67.68 3.01 5
3 03/26/2022 15:57:10 -69.80, 117.44 112.62 03/26/2022 15:55:58 -69.84, 117.00 112.55 17.75 72
4 03/29/2022 06:32:43 -70.14,-101.94 113.28 03/29/2022 06:33:25 -70.14,-101.97 113.29 1.47 42
5 03/29/2022 07:23:27 70.03, 65.54 66.59 03/29/2022 07:22:52 70.04, 65.52 66.60 1.23 35
6 03/31/2022 21:59:06 70.64,-154.28 66.21 03/31/2022 22:00:16 70.54,-153.14 66.07 43.36 70
7 03/31/2022 22:49:40 -70.12, 13.86 114.35 03/31/2022 22:49:52 -70.11, 13.86 114.37 1.64 12
8 03/31/2022 23:40:24 70.01,-178.66 65.53 03/31/2022 23:39:19 70.00,-178.66 65.52 1.84 65
9 04/03/2022 14:15:54 70.15, -37.73 64.67 04/03/2022 14:16:49 70.16, -37.81 64.67 3.08 55
10 04/03/2022 15:06:36 -70.05, 129.74 115.46 04/03/2022 15:06:19 -70.06, 129.67 115.45 2.48 17
11 04/03/2022 15:57:06 69.20, -61.71 63.65 04/03/2022 15:55:59 69.22, -63.81 63.75 83.24 67
12 04/06/2022 06:32:51 70.14, 78.05 63.63 04/06/2022 06:33:15 70.16, 78.06 63.64 1.56 24
13 04/06/2022 07:23:33 -70.04,-114.48 116.49 04/06/2022 07:22:45 -70.05,-114.45 116.48 1.80 48
14 04/08/2022 21:59:02 -70.19, 26.44 117.32 04/08/2022 22:00:14 -70.20, 26.37 117.32 3.16 72
15 04/08/2022 22:49:46 70.08,-166.09 62.56 04/08/2022 22:49:41 70.08,-166.15 62.56 2.49 5
16 04/08/2022 23:40:25 -69.82, 1.63 117.73 04/08/2022 23:39:13 -69.87, 1.19 117.66 17.81 72



Historial Predications of SNOs between NOAA-20 and LANDSAT-8
